Time,TemperatureF,DewpointF,PressureIn,WindDirection,WindDirectionDegrees,WindSpeedMPH,WindSpeedGustMPH,Humidity,HourlyPrecipIn,Conditions,Clouds,dailyrainin,SoftwareType,DateUTC
2013-10-06 00:03:00,58.8,44.0,30.02,North,0,0.0,0.0,58,0.00,,,0.00,WUHU216HW,2013-10-06 05:03:00,
2013-10-06 00:58:00,58.6,44.8,30.03,North,0,0.0,0.0,62,0.00,,,0.00,WUHU216HW,2013-10-06 05:58:00,
2013-10-06 01:11:00,59.0,45.5,30.03,North,0,0.0,0.0,61,0.00,,,0.00,WUHU216HW,2013-10-06 06:11:00,
2013-10-06 01:16:00,59.0,45.5,30.03,North,0,0.0,0.0,62,0.00,,,0.00,WUHU216HW,2013-10-06 06:16:00,
2013-10-06 01:21:00,59.0,45.5,30.03,North,0,0.0,0.0,62,0.00,,,0.00,WUHU216HW,2013-10-06 06:21:00,
2013-10-06 01:38:00,59.0,45.5,30.04,North,0,0.0,0.0,60,0.00,,,0.00,WUHU216HW,2013-10-06 06:38:00,
2013-10-06 03:12:00,51.9,48.4,30.06,North,0,0.0,0.0,88,0.65,,,0.00,WUHU216HW,2013-10-06 08:12:00,
2013-10-06 03:30:00,52.3,48.8,30.07,North,0,0.0,0.0,88,0.71,,,0.65,WUHU216HW,2013-10-06 08:30:00,
2013-10-06 03:35:00,52.5,49.0,30.06,North,0,0.0,0.0,88,0.76,,,0.76,WUHU216HW,2013-10-06 08:35:00,
2013-10-06 03:40:00,52.5,49.0,30.07,North,0,0.0,0.0,88,0.76,,,0.76,WUHU216HW,2013-10-06 08:40:00,
2013-10-06 03:45:00,52.5,49.0,30.07,North,0,0.0,0.0,88,0.73,,,0.78,WUHU216HW,2013-10-06 08:45:00,
2013-10-06 03:50:00,52.5,49.0,30.06,North,0,0.0,0.0,88,0.73,,,0.80,WUHU216HW,2013-10-06 08:50:00,
2013-10-06 03:55:00,52.5,49.0,30.06,North,0,0.0,0.0,88,0.73,,,0.80,WUHU216HW,2013-10-06 08:55:00,
2013-10-06 10:08:00,59.5,51.2,30.11,North,0,0.0,0.0,74,0.00,,,0.90,WUHU216HW,2013-10-06 15:08:00,
2013-10-06 10:14:00,59.5,51.2,30.11,North,0,0.0,0.0,74,0.00,,,0.90,WUHU216HW,2013-10-06 15:14:00,
2013-10-06 10:32:00,61.3,50.7,30.11,North,0,0.0,0.0,68,0.00,,,0.90,WUHU216HW,2013-10-06 15:32:00,
2013-10-06 11:11:00,66.9,51.6,30.12,North,0,0.0,0.0,58,0.00,,,0.90,WUHU216HW,2013-10-06 16:11:00,
2013-10-06 11:23:00,67.8,50.0,30.12,North,0,0.0,0.0,53,0.00,,,0.90,WUHU216HW,2013-10-06 16:23:00,
2013-10-06 12:43:00,72.1,45.7,30.11,North,0,0.0,0.0,41,0.00,,,0.90,WUHU216HW,2013-10-06 17:43:00,
2013-10-06 13:39:00,74.1,46.7,30.09,North,0,0.0,0.0,39,0.00,,,0.90,WUHU216HW,2013-10-06 18:39:00,
2013-10-06 13:46:00,74.1,46.7,30.09,North,0,0.0,0.0,39,0.00,,,0.90,WUHU216HW,2013-10-06 18:46:00,
2013-10-06 14:11:00,75.2,47.0,30.07,North,0,0.0,0.0,37,0.00,,,0.90,WUHU216HW,2013-10-06 19:11:00,
2013-10-06 14:53:00,77.1,43.4,30.05,North,0,0.0,0.0,30,0.00,,,0.90,WUHU216HW,2013-10-06 19:53:00,
2013-10-06 15:23:00,77.5,43.7,30.04,North,0,0.0,0.0,30,0.00,,,0.90,WUHU216HW,2013-10-06 20:23:00,
2013-10-06 15:38:00,78.0,41.0,30.04,North,0,0.0,0.0,27,0.00,,,0.90,WUHU216HW,2013-10-06 20:38:00,
2013-10-06 15:43:00,77.9,38.8,30.04,North,0,0.0,0.0,25,0.00,,,0.90,WUHU216HW,2013-10-06 20:43:00,
2013-10-06 15:50:00,77.9,38.8,30.04,North,0,0.0,0.0,25,0.00,,,0.90,WUHU216HW,2013-10-06 20:50:00,
2013-10-06 16:30:00,77.7,38.6,30.03,North,0,0.0,0.0,25,0.00,,,0.90,WUHU216HW,2013-10-06 21:30:00,
2013-10-06 16:35:00,78.4,43.4,30.04,North,0,0.0,0.0,27,0.00,,,0.90,WUHU216HW,2013-10-06 21:35:00,
2013-10-06 16:40:00,78.4,43.4,30.04,North,0,0.0,0.0,27,0.00,,,0.90,WUHU216HW,2013-10-06 21:40:00,
2013-10-06 17:43:00,76.2,41.6,30.04,North,0,0.0,0.0,28,0.00,,,0.90,WUHU216HW,2013-10-06 22:43:00,
2013-10-06 17:48:00,76.2,41.6,30.04,North,0,0.0,0.0,30,0.00,,,0.90,WUHU216HW,2013-10-06 22:48:00,
2013-10-06 17:53:00,76.2,41.6,30.04,North,0,0.0,0.0,30,0.00,,,0.90,WUHU216HW,2013-10-06 22:53:00,
2013-10-06 18:05:00,75.7,40.1,30.04,North,0,0.0,0.0,28,0.00,,,0.90,WUHU216HW,2013-10-06 23:05:00,
2013-10-06 18:19:00,75.0,43.0,30.04,North,0,0.0,0.0,33,0.00,,,0.90,WUHU216HW,2013-10-06 23:19:00,
2013-10-06 18:45:00,72.3,43.7,30.04,North,0,0.0,0.0,36,0.00,,,0.90,WUHU216HW,2013-10-06 23:45:00,
2013-10-06 19:01:00,70.3,46.0,30.04,North,0,0.0,0.0,42,0.00,,,0.90,WUHU216HW,2013-10-07 00:01:00,
2013-10-06 19:18:00,67.1,48.4,30.05,North,0,0.0,0.0,51,0.00,,,0.90,WUHU216HW,2013-10-07 00:18:00,
2013-10-06 19:37:00,63.3,48.7,30.05,North,0,0.0,0.0,59,0.00,,,0.90,WUHU216HW,2013-10-07 00:37:00,
2013-10-06 19:42:00,61.8,48.3,30.05,North,0,0.0,0.0,61,0.00,,,0.90,WUHU216HW,2013-10-07 00:42:00,
2013-10-06 19:47:00,61.8,48.3,30.05,North,0,0.0,0.0,61,0.00,,,0.90,WUHU216HW,2013-10-07 00:47:00,
2013-10-06 19:58:00,60.4,47.8,30.06,North,0,0.0,0.0,63,0.00,,,0.90,WUHU216HW,2013-10-07 00:58:00,
2013-10-06 20:12:00,59.0,47.6,30.06,North,0,0.0,0.0,67,0.00,,,0.90,WUHU216HW,2013-10-07 01:12:00,
2013-10-06 20:29:00,57.5,46.6,30.07,North,0,0.0,0.0,67,0.00,,,0.90,WUHU216HW,2013-10-07 01:29:00,
2013-10-06 20:40:00,56.8,46.3,30.07,North,0,0.0,0.0,68,0.00,,,0.90,WUHU216HW,2013-10-07 01:40:00,
2013-10-06 21:05:00,55.2,46.0,30.08,North,0,0.0,0.0,71,0.00,,,0.90,WUHU216HW,2013-10-07 02:05:00,
2013-10-06 21:19:00,54.3,45.4,30.09,North,0,0.0,0.0,72,0.00,,,0.90,WUHU216HW,2013-10-07 02:19:00,
2013-10-06 21:20:00,54.6,45.4,30.09,North,0,0.0,0.0,72,0.00,,,0.90,WUHU216HW,2013-10-07 02:20:00,
2013-10-06 21:25:00,54.3,45.4,30.09,North,0,0.0,0.0,72,0.00,,,0.90,WUHU216HW,2013-10-07 02:25:00,
2013-10-06 21:37:00,53.7,44.9,30.09,North,0,0.0,0.0,72,0.00,,,0.90,WUHU216HW,2013-10-07 02:37:00,
2013-10-06 22:31:00,51.9,44.3,30.10,North,0,0.0,0.0,75,0.00,,,0.90,WUHU216HW,2013-10-07 03:31:00,
2013-10-06 23:19:00,51.2,44.6,30.10,North,0,0.0,0.0,78,0.00,,,0.90,WUHU216HW,2013-10-07 04:19:00,
2013-10-06 23:45:00,50.5,43.9,30.09,North,0,0.0,0.0,78,0.00,,,0.90,WUHU216HW,2013-10-07 04:45:00,